EW5209 Weather Reports


Display with metric or nautical units.
time (UTC)temp
F
wind
direction
speed
MPH
gust
MPH
rain 1hr
in
rain 24hr
in
rain mn
in
humidity
%
barometer
mb
20260509123807 73 188 0.0 0.0 0.00 0.00 0.00 47 1009.5
20260509123309 72 188 3.0 0.0 0.00 0.00 0.00 43 1009.5
20260509122809 0 0.0 0.0 0.00 0.00 0.00 1009.6
20260509122215 0 0.0 0.0 0.00 0.00 0.00 1009.6
20260509121714 0 0.0 0.0 0.00 0.00 0.00 1009.7
20260509121214 0 0.0 0.0 0.00 0.00 0.00 1009.8
20260509120624 0 0.0 0.0 0.00 0.00 0.00 1009.9
20260509120618 0 0.0 0.0 0.00 0.00 0.00 1009.8
20260509115618 0 0.0 0.0 0.00 0.00 0.00 1009.9
20260509115114 0 0.0 0.0 0.00 0.00 0.00 1009.9
20260509114615 0 0.0 0.0 0.00 0.00 0.00 1009.9
20260509114114 0 0.0 0.0 0.00 0.00 0.00 1009.9
20260509113611 0 0.0 0.0 0.00 0.00 0.00 1009.9
20260509113111 0 0.0 0.0 0.00 0.00 0.00 1009.8
20260509112610 0 0.0 0.0 0.00 0.00 0.00 1009.7
20260509112019 0 0.0 0.0 0.00 0.00 0.00 1009.7
20260509111518 0 0.0 0.0 0.00 0.00 0.00 1009.6
20260509111016 0 0.0 0.0 0.00 0.00 0.00 1009.6
20260509110515 0 0.0 0.0 0.00 0.00 0.00 1009.3
20260509110011 0 0.0 0.0 0.00 0.00 0.00 1009.4
20260509105421 0 0.0 0.0 0.00 0.00 0.00 1008.9
20260509105416 0 0.0 0.0 0.00 0.00 0.00 1008.1
20260509104410 0 244 3.0 2.0 0.00 0.00 0.00 1007.9
20260509103910 0 244 3.0 9.0 0.00 0.00 0.00 1007.7
20260509103407 70 244 3.0 9.0 0.00 0.00 0.00 16 1007.6
20260509102906 70 244 3.0 9.0 0.00 0.00 0.00 16 1007.6
20260509102402 70 155 3.0 9.0 0.00 0.00 0.00 17 1007.4
20260509101901 71 141 2.0 8.0 0.00 0.00 0.00 20 1007.3
20260509101407 71 197 4.0 10.0 0.00 0.00 0.00 23 1007.1
20260509101401 71 132 2.0 8.0 0.00 0.00 0.00 22 1007.2
20260509100402 71 197 4.0 10.0 0.00 0.00 0.00 24 1007.2
20260509095859 71 266 3.0 10.0 0.00 0.00 0.00 24 1006.9
20260509095400 70 117 4.0 10.0 0.00 0.00 0.00 26 1006.4
20260509094900 70 124 3.0 10.0 0.00 0.00 0.00 28 1006.5
20260509094358 70 100 3.0 12.0 0.00 0.00 0.00 29 1006.6
20260509093857 70 250 4.0 12.0 0.00 0.00 0.00 29 1006.8
20260509093355 70 94 4.0 12.0 0.00 0.00 0.00 29 1006.9
20260509092856 70 119 5.0 12.0 0.00 0.00 0.00 28 1006.9
20260509092354 70 140 6.0 12.0 0.00 0.00 0.00 29 1007.0
20260509091855 70 113 4.0 12.0 0.00 0.00 0.00 30 1007.4
20260509091355 70 111 3.0 10.0 0.00 0.00 0.00 32 1007.8
20260509090855 70 115 3.0 9.0 0.00 0.00 0.00 33 1008.1
20260509090401 70 68 1.0 5.0 0.00 0.00 0.00 37 1008.5
20260509090355 70 154 2.0 9.0 0.00 0.00 0.00 35 1008.3
20260509085355 70 236 1.0 6.0 0.00 0.00 0.00 39 1008.5
20260509084856 70 134 1.0 6.0 0.00 0.00 0.00 40 1008.4
20260509084353 70 101 1.0 6.0 0.00 0.00 0.00 41 1008.5
20260509083854 70 175 1.0 6.0 0.00 0.00 0.00 43 1008.7
20260509083352 70 116 1.0 3.0 0.00 0.00 0.00 45 1008.9
20260509082855 70 165 0.0 3.0 0.00 0.00 0.00 45 1009.4
20260509082352 70 224 0.0 2.0 0.00 0.00 0.00 46 1009.6
20260509081857 70 214 1.0 3.0 0.00 0.00 0.00 45 1010.0
20260509081853 70 214 0.0 2.0 0.00 0.00 0.00 46 1009.7
20260509080853 70 207 1.0 3.0 0.00 0.00 0.00 44 1010.2
20260509080354 70 205 1.0 3.0 0.00 0.00 0.00 44 1010.5
20260509075853 69 213 1.0 3.0 0.00 0.00 0.00 43 1010.7
20260509075359 69 148 0.0 2.0 0.00 0.00 0.00 42 1010.6
20260509075354 69 173 0.0 3.0 0.00 0.00 0.00 43 1010.7
20260509074352 69 220 0.0 1.0 0.00 0.00 0.00 45 1010.6
20260509073851 69 221 0.0 0.0 0.00 0.00 0.00 49 1010.5
20260509073351 69 221 0.0 0.0 0.00 0.00 0.00 54 1010.3
20260509072852 69 221 0.0 0.0 0.00 0.00 0.00 56 1010.2
20260509072350 69 221 0.0 0.0 0.00 0.00 0.00 62 1010.1
20260509071856 69 221 0.0 0.0 0.00 0.00 0.00 61 1010.1
20260509071852 69 221 0.0 0.0 0.00 0.00 0.00 61 1010.0
20260509071510 69 221 0.0 0.0 0.00 0.00 0.00 65 1010.0
20260509070350 69 221 0.0 0.0 0.00 0.00 0.00 64 1010.0
20260509065851 70 221 0.0 0.0 0.00 0.00 0.00 66 1010.1
20260509065351 70 228 0.0 0.0 0.00 0.00 0.00 67 1009.9
20260509064858 70 114 0.0 0.0 0.00 0.00 0.00 76 1010.4
20260509064851 70 238 0.0 0.0 0.00 0.00 0.00 67 1010.1
20260509064352 69 167 0.0 0.0 0.00 0.00 0.00 69 1010.0
20260509063851 69 114 0.0 0.0 0.00 0.00 0.00 72 1010.5
20260509063350 69 114 0.0 0.0 0.00 0.00 0.00 73 1010.5
20260509062350 70 114 0.0 0.0 0.00 0.00 0.00 77 1010.3
20260509061852 70 114 0.0 0.0 0.00 0.00 0.00 79 1010.2
20260509061350 70 114 0.0 2.0 0.00 0.00 0.00 80 1010.3
20260509060849 70 114 0.0 2.0 0.00 0.00 0.00 81 1010.4
20260509060346 71 114 0.0 2.0 0.00 0.00 0.00 81 1010.2
20260509055850 71 121 0.0 2.0 0.00 0.00 0.00 82 1009.8
20260509055845 71 114 0.0 2.0 0.00 0.00 0.00 82 1010.1
20260509054844 71 129 0.0 2.0 0.00 0.00 0.00 82 1009.8
20260509054840 71 122 0.0 2.0 0.00 0.00 0.00 83 1010.0
20260509053837 71 148 1.0 4.0 0.00 0.00 0.00 83 1009.8
20260509053339 71 136 2.0 5.0 0.00 0.00 0.00 83 1009.8
20260509053334 71 129 2.0 5.0 0.00 0.00 0.00 83 1009.9
20260509052332 72 133 2.0 5.0 0.00 0.00 0.00 83 1009.8
20260509051830 72 120 2.0 5.0 0.00 0.00 0.00 83 1009.7
20260509051331 72 103 2.0 5.0 0.00 0.00 0.00 83 1009.7
20260509050836 72 117 1.0 4.0 0.00 0.00 0.00 83 1010.1
20260509050830 72 121 1.0 5.0 0.00 0.00 0.00 83 1009.8
20260509050446 72 109 2.0 4.0 0.00 0.00 0.00 83 1010.1
20260509045827 72 119 2.0 4.0 0.00 0.00 0.00 83 1010.1
20260509044828 73 113 1.0 2.0 0.00 0.00 0.00 83 1010.3
20260509044327 73 113 0.0 1.0 0.00 0.00 0.00 83 1010.4
20260509043828 73 113 0.0 0.0 0.00 0.00 0.00 83 1010.4
20260509043327 73 113 0.0 0.0 0.00 0.00 0.00 83 1010.2
20260509042833 73 113 0.0 0.0 0.00 0.00 0.00 83 1010.2
20260509042827 73 113 0.0 0.0 0.00 0.00 0.00 83 1010.2
20260509041827 73 113 0.0 0.0 0.00 0.00 0.00 83 1010.2
20260509041327 73 113 0.0 0.0 0.00 0.00 0.00 83 1010.2
20260509040828 73 113 0.0 0.0 0.00 0.00 0.00 83 1010.1
20260509040326 73 113 0.0 0.0 0.00 0.00 0.00 83 1010.0
20260509035825 73 113 0.0 0.0 0.00 0.00 0.00 83 1009.9
20260509035325 73 113 0.0 0.0 0.00 0.00 0.00 83 1009.9
20260509034831 73 113 0.0 0.0 0.00 0.00 0.00 83 1010.0
20260509034825 73 113 0.0 0.0 0.00 0.00 0.00 83 1009.9
20260509033825 73 113 0.0 0.0 0.00 0.00 0.00 83 1009.9
20260509033326 73 113 0.0 0.0 0.00 0.00 0.00 83 1009.8
20260509032825 73 113 0.0 0.0 0.00 0.00 0.00 83 1009.6
20260509032325 73 113 0.0 4.0 0.00 0.00 0.00 83 1009.5
20260509031825 73 113 0.0 4.0 0.00 0.00 0.00 83 1009.5
20260509031324 73 113 1.0 4.0 0.00 0.00 0.00 83 1009.4
20260509030829 73 130 0.0 2.0 0.00 0.00 0.00 83 1009.2
20260509030824 73 113 1.0 4.0 0.00 0.00 0.00 83 1009.3
20260509030443 73 133 0.0 0.0 0.00 0.00 0.00 83 1009.1
20260509025943 73 132 0.0 0.0 0.00 0.00 0.00 83 1009.1
20260509024824 73 133 0.0 0.0 0.00 0.00 0.00 83 1009.2
20260509024324 73 133 0.0 0.0 0.00 0.00 0.00 83 1009.2
20260509023824 73 132 0.0 0.0 0.00 0.00 0.00 83 1009.2
20260509023328 73 132 0.0 0.0 0.00 0.00 0.00 82 1009.1
20260509023323 73 133 0.0 0.0 0.00 0.00 0.00 83 1009.2
20260509022321 73 132 0.0 0.0 0.00 0.00 0.00 82 1009.1
20260509021822 73 133 0.0 0.0 0.00 0.00 0.00 82 1009.0
20260509021327 73 132 0.0 0.0 0.00 0.00 0.00 82 1009.0
20260509021321 73 133 0.0 0.0 0.00 0.00 0.00 82 1009.0
20260509020940 73 132 0.0 0.0 0.00 0.00 0.00 82 1008.8
20260509015822 73 133 0.0 0.0 0.00 0.00 0.00 82 1008.7
20260509015319 73 131 0.0 0.0 0.00 0.00 0.00 82 1008.7
20260509014819 73 131 0.0 1.0 0.00 0.00 0.00 82 1008.8
20260509014318 74 131 0.0 2.0 0.00 0.00 0.00 82 1008.6
20260509013824 74 131 0.0 4.0 0.00 0.00 0.00 82 1008.5
20260509013820 74 131 0.0 2.0 0.00 0.00 0.00 82 1008.6
20260509012818 74 131 0.0 4.0 0.00 0.00 0.00 81 1008.5
20260509012317 74 131 1.0 4.0 0.00 0.00 0.00 81 1008.4
20260509011818 74 128 0.0 4.0 0.00 0.00 0.00 81 1008.4
20260509011321 74 99 0.0 3.0 0.00 0.00 0.00 81 1008.2
20260509011315 74 115 0.0 3.0 0.00 0.00 0.00 81 1008.3
20260509010319 74 109 0.0 3.0 0.00 0.00 0.00 80 1008.0
20260509010314 74 120 1.0 3.0 0.00 0.00 0.00 80 1008.1
20260509005316 74 119 0.0 3.0 0.00 0.00 0.00 80 1007.9
20260509004815 75 110 1.0 3.0 0.00 0.00 0.00 80 1007.8
20260509004315 75 109 0.0 3.0 0.00 0.00 0.00 79 1007.8
20260509003816 75 119 0.0 2.0 0.00 0.00 0.00 79 1007.9
20260509003315 75 124 0.0 2.0 0.00 0.00 0.00 78 1007.9
20260509002821 76 123 0.0 5.0 0.00 0.00 0.00 77 1008.0
20260509002815 76 124 0.0 3.0 0.00 0.00 0.00 78 1008.0
20260509001814 76 103 1.0 5.0 0.00 0.00 0.00 77 1008.0
20260509001315 76 116 1.0 5.0 0.00 0.00 0.00 77 1008.1
20260509000816 76 114 2.0 5.0 0.00 0.00 0.00 77 1008.1
20260509000315 76 116 2.0 5.0 0.00 0.00 0.00 77 1008.1
20260508235815 76 110 1.0 5.0 0.00 0.00 0.00 76 1008.1
20260508235314 76 127 2.0 5.0 0.00 0.00 0.00 77 1008.1
20260508234821 76 120 1.0 5.0 0.00 0.00 0.00 76 1008.1
20260508234815 76 122 1.0 5.0 0.00 0.00 0.00 76 1008.1
20260508233816 76 72 2.0 6.0 0.00 0.00 0.00 76 1008.1
20260508233316 76 135 2.0 6.0 0.00 0.00 0.00 75 1008.2
20260508232816 76 96 1.0 6.0 0.00 0.00 0.00 74 1008.2
20260508232316 77 117 2.0 6.0 0.00 0.00 0.00 75 1008.2
20260508231814 76 103 2.0 6.0 0.00 0.00 0.00 75 1008.2
20260508231310 76 128 2.0 6.0 0.00 0.00 0.00 75 1008.2
20260508230812 76 103 2.0 6.0 0.00 0.00 0.00 75 1008.2
20260508230312 76 129 2.0 6.0 0.00 0.00 0.00 74 1008.3
20260508230308 77 110 1.0 6.0 0.00 0.00 0.00 73 1008.4
20260508225927 77 105 1.0 6.0 0.00 0.00 0.00 72 1008.4
20260508225427 77 145 1.0 6.0 0.00 0.00 0.00 74 1008.5
20260508224303 76 149 1.0 6.0 0.00 0.00 0.00 74 1008.4
20260508223801 76 95 1.0 6.0 0.00 0.00 0.00 74 1008.5
20260508223258 76 207 2.0 7.0 0.00 0.00 0.00 73 1008.5
20260508222758 76 131 2.0 7.0 0.00 0.00 0.00 74 1008.5
20260508222259 76 243 2.0 7.0 0.00 0.00 0.00 74 1008.5
20260508221759 76 209 2.0 7.0 0.00 0.00 0.00 75 1008.4
20260508221300 75 211 3.0 7.0 0.00 0.00 0.00 75 1008.4
20260508220758 75 105 2.0 7.0 0.00 0.00 0.00 75 1008.3
20260508220259 74 204 2.0 11.0 0.00 0.00 0.00 77 1008.2
20260508215804 73 98 4.0 14.0 0.00 0.00 0.00 77 1008.2
20260508215759 74 124 3.0 11.0 0.00 0.00 0.00 78 1008.3
20260508214800 73 122 5.0 14.0 0.00 0.00 0.00 77 1007.9
20260508214256 72 121 6.0 14.0 0.00 0.00 0.00 79 1007.8
20260508213757 71 127 6.0 14.0 0.00 0.00 0.00 80 1007.8
20260508213258 71 115 7.0 14.0 0.00 0.00 0.00 81 1008.0
20260508212756 70 122 5.0 14.0 0.00 0.00 0.00 81 1008.3
20260508212257 70 134 2.0 8.0 0.00 0.00 0.00 83 1008.8
20260508211757 69 103 1.0 4.0 0.00 0.00 0.00 83 1009.2
20260508211256 69 120 0.0 4.0 0.00 0.00 0.00 82 1009.5
20260508210757 69 238 0.0 0.0 0.00 0.00 0.00 82 1010.5
20260508210258 69 238 0.0 4.0 0.00 0.00 0.00 81 1010.6
20260508205757 70 232 0.0 4.0 0.00 0.00 0.00 79 1010.6
20260508205257 70 225 1.0 4.0 0.00 0.00 0.00 77 1010.3
20260508204756 70 188 1.0 5.0 0.00 0.00 0.00 76 1010.1
20260508204256 71 196 2.0 5.0 0.00 0.00 0.00 76 1010.6
20260508203756 71 227 2.0 5.0 0.00 0.00 0.00 76 1010.7
20260508203255 71 212 1.0 5.0 0.00 0.00 0.00 75 1010.7
20260508202755 71 229 0.0 4.0 0.00 0.00 0.00 74 1010.5
20260508202300 71 191 0.0 7.0 0.00 0.00 0.00 74 1010.6
20260508202255 71 127 0.0 4.0 0.00 0.00 0.00 73 1010.2
20260508201254 72 205 1.0 7.0 0.00 0.00 0.00 72 1010.7
20260508200755 72 117 2.0 7.0 0.00 0.00 0.00 71 1010.3
20260508200255 72 211 2.0 7.0 0.00 0.00 0.00 71 1010.9
20260508195755 73 131 2.0 7.0 0.00 0.00 0.00 70 1010.7
20260508195254 74 110 2.0 7.0 0.00 0.00 0.00 69 1010.6
20260508194754 74 130 2.0 7.0 0.00 0.00 0.00 68 1010.3
20260508194259 75 116 1.0 7.0 0.00 0.00 0.00 67 1010.5
20260508194255 74 177 2.0 6.0 0.00 0.00 0.00 67 1010.4
20260508193252 75 143 1.0 7.0 0.00 0.00 0.00 68 1010.5
20260508192758 74 131 2.0 7.0 0.00 0.00 0.00 69 1010.5
20260508192753 74 193 2.0 7.0 0.00 0.00 0.00 68 1010.5
20260508191752 74 244 2.0 7.0 0.00 0.00 0.00 69 1010.6
20260508191254 74 140 2.0 7.0 0.00 0.00 0.00 69 1010.8
20260508190752 74 113 1.0 7.0 0.00 0.00 0.00 70 1011.0
20260508190252 74 232 1.0 5.0 0.00 0.00 0.00 71 1011.0
20260508185753 73 136 1.0 5.0 0.00 0.00 0.00 71 1011.0
20260508185250 73 215 1.0 5.0 0.00 0.00 0.00 70 1011.2
20260508184751 73 202 0.0 3.0 0.00 0.00 0.00 71 1011.2
20260508184250 73 169 0.0 4.0 0.00 0.00 0.00 71 1011.3
20260508183750 74 153 0.0 4.0 0.00 0.00 0.00 71 1011.4
20260508183250 74 162 0.0 5.0 0.00 0.00 0.00 71 1011.4
20260508182752 74 243 1.0 5.0 0.00 0.00 0.00 72 1011.4
20260508182255 74 199 1.0 6.0 0.00 0.00 0.00 71 1011.5
20260508182249 74 117 1.0 5.0 0.00 0.00 0.00 71 1011.5
20260508181246 74 113 1.0 6.0 0.00 0.00 0.00 73 1011.4
20260508180747 74 143 0.0 7.0 0.00 0.00 0.00 72 1011.5
20260508180244 73 100 1.0 7.0 0.00 0.00 0.00 72 1011.8
20260508175744 73 127 2.0 9.0 0.00 0.00 0.00 72 1011.9
20260508175244 73 108 2.0 9.0 0.00 0.00 0.00 71 1012.0
20260508174742 73 102 2.0 9.0 0.00 0.00 0.00 72 1012.0
20260508174243 73 120 2.0 9.0 0.00 0.00 0.00 70 1012.0
20260508173745 73 124 1.0 6.0 0.00 0.00 0.00 69 1012.1
20260508173739 73 150 1.0 6.0 0.00 0.00 0.00 70 1012.1
20260508172741 73 120 1.0 6.0 0.00 0.00 0.00 71 1012.2
20260508172241 72 129 2.0 6.0 0.00 0.00 0.00 71 1012.3
20260508171741 72 133 2.0 5.0 0.00 0.00 0.00 72 1012.5
20260508171241 72 110 1.0 5.0 0.00 0.00 0.00 71 1012.5
20260508170740 72 117 1.0 8.0 0.00 0.00 0.00 71 1012.6
20260508170241 71 125 2.0 8.0 0.00 0.00 0.00 72 1012.6
20260508165741 71 126 3.0 8.0 0.00 0.00 0.00 71 1012.6
20260508165239 71 79 4.0 8.0 0.00 0.00 0.00 71 1012.7
20260508164740 71 75 3.0 8.0 0.00 0.00 0.00 72 1012.8
20260508164239 71 107 3.0 8.0 0.00 0.00 0.00 73 1012.9
20260508163738 71 60 3.0 7.0 0.00 0.00 0.00 74 1013.1
20260508163238 71 86 2.0 7.0 0.00 0.00 0.00 74 1013.4
20260508162737 70 127 2.0 7.0 0.00 0.00 0.00 75 1013.4
20260508162237 70 65 2.0 7.0 0.00 0.00 0.00 76 1013.5
20260508161735 69 100 3.0 7.0 0.00 0.00 0.00 75 1013.6
20260508161234 70 101 2.0 5.0 0.00 0.00 0.00 75 1013.7
20260508160731 70 128 2.0 5.0 0.00 0.00 0.00 75 1013.7
20260508160232 70 114 2.0 5.0 0.00 0.00 0.00 75 1013.7
20260508155733 70 88 1.0 5.0 0.00 0.00 0.00 74 1013.8
20260508155233 70 104 1.0 5.0 0.00 0.00 0.00 75 1013.8
20260508154729 70 117 1.0 5.0 0.00 0.00 0.00 75 1013.9
20260508154226 70 110 1.0 3.0 0.00 0.00 0.00 75 1014.0
20260508153726 70 77 1.0 5.0 0.00 0.00 0.00 75 1014.0
20260508153226 70 78 1.0 5.0 0.00 0.00 0.00 74 1014.0
20260508152726 70 95 1.0 3.0 0.00 0.00 0.00 74 1014.0
20260508152227 70 82 1.0 4.0 0.00 0.00 0.00 74 1014.1
20260508151731 70 117 1.0 6.0 0.00 0.00 0.00 74 1014.3
20260508151724 70 139 1.0 4.0 0.00 0.00 0.00 73 1014.1
20260508151224 70 125 1.0 6.0 0.00 0.00 0.00 73 1014.2
20260508150224 69 131 2.0 6.0 0.00 0.00 0.00 74 1014.2
20260508145723 69 122 2.0 6.0 0.00 0.00 0.00 74 1014.2
20260508145224 69 121 2.0 6.0 0.00 0.00 0.00 75 1014.2
20260508144724 68 44 3.0 6.0 0.00 0.00 0.00 75 1014.2
20260508144223 68 84 3.0 6.0 0.00 0.00 0.00 74 1014.2
20260508143729 68 77 2.0 6.0 0.00 0.00 0.00 75 1014.2
20260508143724 68 101 3.0 6.0 0.00 0.00 0.00 75 1014.2
20260508142723 68 85 2.0 6.0 0.00 0.00 0.00 77 1014.2
20260508142224 67 63 2.0 7.0 0.00 0.00 0.00 77 1014.2
20260508141723 67 72 2.0 7.0 0.00 0.00 0.00 76 1014.1
20260508141224 67 72 2.0 5.0 0.00 0.00 0.00 76 1014.1
20260508140723 67 108 1.0 6.0 0.00 0.00 0.00 76 1014.1
20260508140220 67 96 2.0 6.0 0.00 0.00 0.00 78 1014.2
20260508135725 66 117 1.0 4.0 0.00 0.00 0.00 79 1014.6
20260508135718 66 96 2.0 6.0 0.00 0.00 0.00 78 1014.3
20260508135218 66 100 2.0 6.0 0.00 0.00 0.00 78 1014.5
20260508134718 66 96 2.0 5.0 0.00 0.00 0.00 78 1014.6
20260508133716 65 68 1.0 4.0 0.00 0.00 0.00 81 1014.6
20260508133215 65 64 1.0 5.0 0.00 0.00 0.00 80 1014.6
20260508132716 65 113 1.0 5.0 0.00 0.00 0.00 82 1014.6
20260508132215 65 67 0.0 2.0 0.00 0.00 0.00 81 1014.6
20260508131716 65 80 0.0 2.0 0.00 0.00 0.00 83 1014.6
20260508131217 64 122 0.0 0.0 0.00 0.00 0.00 84 1014.7
20260508130715 64 23 0.0 0.0 0.00 0.00 0.00 84 1014.6
20260508130217 63 315 0.0 0.0 0.00 0.00 0.00 85 1014.7
20260508125720 62 314 0.0 0.0 0.00 0.00 0.00 84 1014.3
20260508125715 63 314 0.0 0.0 0.00 0.00 0.00 85 1014.5
20260508124714 62 77 0.0 1.0 0.00 0.00 0.00 81 1014.3
20260508124214 61 77 0.0 1.0 0.00 0.00 0.00 80 1014.3